Location: Absher
(46.5583°N, 107.9840°W)
Time: 06:44:02
(UTC+00:00)

STRAND 1 - Pass Details

Date: 04 April 2023
Orbit: 767 x 779 km, 98.4° (Epoch: 03 June)

Event Time Altitude Azimuth Distance (km) Brightness Sun altitude
Rises 11:27:02 0° 115° (ESE) 3,246 ? -13.8°
Reaches altitude 10° 11:30:08 10° 95° (E) 2,321 ? -13.3°
Maximum altitude 11:33:14 16° 58° (ENE) 1,910 ? -12.8°
Drops below altitude 10° 11:36:20 10° 20° (NNE) 2,325 ? -12.3°
Sets 11:39:27 0° 0° (N) 3,255 ? -11.8°
